Regional Weather Roundup
Issued by NWS

Home | Current Version | Previous Version | Text Only | Print | Product List | Glossary On
Versions: 1 2 3 4 5 6 7 8 9 10 11 12 13 14 15 16 17 18 19 20 21 22 23 24 25 26 27 28 29 30 31 32 33 34 35 36 37 38 39 40 41 42 43 44 45 46 47 48 49 50
000
ASUS43 KLSX 030707
RWRMO

WEATHER SUMMARY FOR MISSOURI
NATIONAL WEATHER SERVICE SPRINGFIELD MO
200 AM CDT THU SEP 03 2015

NOTE: "FAIR" INDICATES FEW OR NO CLOUDS BELOW 12,000 FEET WITH NO
       SIGNIFICANT WEATHER AND/OR OBSTRUCTIONS TO VISIBILITY.
       CURRENT SKY AND/OR WEATHER CONDITIONS ARE NOT AVAILABLE FOR
       CHILLICOTHE AND FARMINGTON.

MOZ001>031-035>038-043-044-053-054-030800-
...NORTHERN AND WESTERN MISSOURI...

CITY           SKY/WX    TMP DP  RH WIND       PRES   REMARKS
KANSAS CTY INT PTCLDY    75  68  78 S10       29.94F
KANSAS C DTWN  PTCLDY    78  69  73 S8        29.93F
LEE`S SUMMIT   CLEAR     75  67  76 S7        29.96F
ST JOSEPH      CLEAR     73  69  87 S6        29.92S
CHILLICOTHE      N/A     74  69  85 S5        29.96S
KIRKSVILLE     MOCLDY    74  68  81 S7        29.97F

$$
MOZ066>068-077>081-088>096-101>105-030800-
...SOUTHWEST MISSOURI...

CITY           SKY/WX    TMP DP  RH WIND       PRES   REMARKS
SPRINGFIELD    CLEAR     72  66  81 S8        30.01S
JOPLIN         CLEAR     73  67  81 SE7       29.98F

$$
MOZ032>034-039>042-045>050-055>058-069>072-030800-
...CENTRAL MISSOURI...

CITY           SKY/WX    TMP DP  RH WIND       PRES   REMARKS
COLUMBIA       PTCLDY    71  67  87 S6        29.99F
JEFFERSON CITY CLEAR     70  66  87 CALM      29.98F
ROLLA          CLEAR     72  67  84 S8        30.00F
SEDALIA        PTCLDY    72  67  84 S5        29.99F
WHITEMAN AFB   PTCLDY    72  67  84 S5        29.96F
WARRENSBURG    MOCLDY    72  66  83 SE6       29.96F
OSAGE BEACH    CLEAR     72  66  83 CALM      30.00S

$$
MOZ051-052-059>065-030800-
...EAST CENTRAL MISSOURI...

CITY           SKY/WX    TMP DP  RH WIND       PRES   REMARKS
ST LOUIS INTL  CLEAR     79  69  71 SW5       29.99F
SPIRIT OF STL  CLEAR     72  72 100 CALM      29.98F FOG
ST CHARLES     CLEAR     71  70  96 CALM      29.97F

$$
MOZ072>076-082>087-097>100-106>115-030800-
...SOUTH CENTRAL AND SOUTHEAST MISSOURI...

CITY           SKY/WX    TMP DP  RH WIND       PRES   REMARKS
CAPE GIRARDEAU CLEAR     69  68  96 CALM      30.00F
FARMINGTON     CLEAR     70  70 100 CALM      30.04F
POPLAR BLUFF   CLEAR     69  69 100 CALM      29.99S FOG
WEST PLAINS    CLEAR     69  66  90 CALM      30.04F FOG

$$



USA.gov is the U.S. government's official web portal to all federal, state and local government web resources and services.